Time,TemperatureF,DewpointF,PressureIn,WindDirection,WindDirectionDegrees,WindSpeedMPH,WindSpeedGustMPH,Humidity,HourlyPrecipIn,Conditions,Clouds,dailyrainin,SoftwareType,DateUTC
2013-07-04 00:02:00,70.0,65.0,29.37,North,-999,-999.0,-999.0,83,0.00,,,0.00,,2013-07-04 04:02:00,
2013-07-04 00:11:00,70.0,65.0,29.37,North,-999,-999.0,-999.0,84,0.00,,,0.00,,2013-07-04 04:11:00,
2013-07-04 00:22:00,70.0,65.0,29.37,North,-999,-999.0,-999.0,84,0.00,,,0.00,,2013-07-04 04:22:00,
2013-07-04 00:33:00,69.0,64.0,29.38,North,-999,-999.0,-999.0,84,0.00,,,0.00,,2013-07-04 04:33:00,
2013-07-04 00:43:00,69.0,64.0,29.38,North,-999,-999.0,-999.0,84,0.00,,,0.00,,2013-07-04 04:43:00,
2013-07-04 00:52:00,69.0,64.0,29.37,North,-999,-999.0,-999.0,84,0.00,,,0.00,,2013-07-04 04:52:00,
2013-07-04 01:02:00,69.0,64.0,29.37,North,-999,-999.0,-999.0,84,0.00,,,0.00,,2013-07-04 05:02:00,
2013-07-04 01:22:00,69.0,64.0,29.37,North,-999,-999.0,-999.0,85,0.00,,,0.00,,2013-07-04 05:22:00,
2013-07-04 01:33:00,69.0,64.0,29.37,North,-999,-999.0,-999.0,85,0.00,,,0.00,,2013-07-04 05:33:00,
2013-07-04 01:43:00,69.0,64.0,29.37,North,-999,-999.0,-999.0,85,0.00,,,0.00,,2013-07-04 05:43:00,
2013-07-04 01:52:00,69.0,64.0,29.37,North,-999,-999.0,-999.0,85,0.00,,,0.00,,2013-07-04 05:52:00,
2013-07-04 02:01:00,69.0,64.0,29.37,North,-999,-999.0,-999.0,85,0.00,,,0.00,,2013-07-04 06:01:00,
2013-07-04 02:11:00,68.0,63.0,29.37,North,-999,-999.0,-999.0,85,0.00,,,0.00,,2013-07-04 06:11:00,
2013-07-04 02:22:00,68.0,63.0,29.37,North,-999,-999.0,-999.0,85,0.00,,,0.00,,2013-07-04 06:22:00,
2013-07-04 02:34:00,68.0,63.0,29.37,North,-999,-999.0,-999.0,85,0.00,,,0.00,,2013-07-04 06:34:00,
2013-07-04 02:43:00,68.0,63.0,29.37,North,-999,-999.0,-999.0,85,0.00,,,0.00,,2013-07-04 06:43:00,
2013-07-04 03:02:00,67.0,63.0,29.37,North,-999,-999.0,-999.0,86,0.00,,,0.00,,2013-07-04 07:02:00,
2013-07-04 03:12:00,67.0,63.0,29.37,North,-999,-999.0,-999.0,86,0.00,,,0.00,,2013-07-04 07:12:00,
2013-07-04 03:34:00,67.0,63.0,29.37,North,-999,-999.0,-999.0,86,0.00,,,0.00,,2013-07-04 07:34:00,
2013-07-04 03:52:00,67.0,63.0,29.37,North,-999,-999.0,-999.0,86,0.00,,,0.00,,2013-07-04 07:52:00,
2013-07-04 04:02:00,67.0,63.0,29.37,North,-999,-999.0,-999.0,86,0.00,,,0.00,,2013-07-04 08:02:00,
2013-07-04 04:22:00,67.0,63.0,29.37,North,-999,-999.0,-999.0,86,0.00,,,0.00,,2013-07-04 08:22:00,
2013-07-04 04:33:00,67.0,63.0,29.37,North,-999,-999.0,-999.0,86,0.00,,,0.00,,2013-07-04 08:33:00,
2013-07-04 04:42:00,67.0,63.0,29.37,North,-999,-999.0,-999.0,86,0.00,,,0.00,,2013-07-04 08:42:00,
2013-07-04 04:53:00,67.0,63.0,29.38,North,-999,-999.0,-999.0,86,0.00,,,0.00,,2013-07-04 08:53:00,
2013-07-04 05:02:00,67.0,63.0,29.38,North,-999,-999.0,-999.0,86,0.00,,,0.00,,2013-07-04 09:02:00,
2013-07-04 05:11:00,67.0,63.0,29.38,North,-999,-999.0,-999.0,86,0.00,,,0.00,,2013-07-04 09:11:00,
2013-07-04 05:52:00,66.0,62.0,29.38,North,-999,-999.0,-999.0,86,0.00,,,0.00,,2013-07-04 09:52:00,
2013-07-04 06:11:00,67.0,63.0,29.39,North,-999,-999.0,-999.0,86,0.00,,,0.00,,2013-07-04 10:11:00,
2013-07-04 06:22:00,67.0,63.0,29.39,North,-999,-999.0,-999.0,86,0.00,,,0.00,,2013-07-04 10:22:00,
2013-07-04 06:34:00,67.0,63.0,29.39,North,-999,-999.0,-999.0,86,0.00,,,0.00,,2013-07-04 10:34:00,
2013-07-04 06:43:00,67.0,63.0,29.39,North,-999,-999.0,-999.0,86,0.00,,,0.00,,2013-07-04 10:43:00,
2013-07-04 06:53:00,67.0,63.0,29.39,North,-999,-999.0,-999.0,86,0.00,,,0.00,,2013-07-04 10:53:00,
2013-07-04 07:02:00,68.0,64.0,29.40,North,-999,-999.0,-999.0,86,0.00,,,0.00,,2013-07-04 11:02:00,
2013-07-04 07:12:00,68.0,64.0,29.40,North,-999,-999.0,-999.0,86,0.00,,,0.00,,2013-07-04 11:12:00,
2013-07-04 07:22:00,69.0,65.0,29.40,North,-999,-999.0,-999.0,86,0.00,,,0.00,,2013-07-04 11:22:00,
2013-07-04 07:34:00,70.0,66.0,29.40,North,-999,-999.0,-999.0,86,0.00,,,0.00,,2013-07-04 11:34:00,
2013-07-04 07:43:00,70.0,66.0,29.40,North,-999,-999.0,-999.0,87,0.00,,,0.00,,2013-07-04 11:43:00,
2013-07-04 07:53:00,71.0,67.0,29.40,North,-999,-999.0,-999.0,87,0.00,,,0.00,,2013-07-04 11:53:00,
2013-07-04 08:33:00,74.0,69.0,29.41,North,-999,-999.0,-999.0,84,0.00,,,0.00,,2013-07-04 12:33:00,
2013-07-04 08:43:00,75.0,70.0,29.40,North,-999,-999.0,-999.0,84,0.00,,,0.00,,2013-07-04 12:43:00,
2013-07-04 08:52:00,76.0,70.0,29.40,North,-999,-999.0,-999.0,82,0.00,,,0.00,,2013-07-04 12:52:00,
2013-07-04 09:12:00,76.0,70.0,29.40,North,-999,-999.0,-999.0,81,0.00,,,0.00,,2013-07-04 13:12:00,
2013-07-04 09:23:00,76.0,70.0,29.40,North,-999,-999.0,-999.0,81,0.00,,,0.00,,2013-07-04 13:23:00,
2013-07-04 09:33:00,79.0,72.0,29.40,North,-999,-999.0,-999.0,78,0.00,,,0.00,,2013-07-04 13:33:00,
2013-07-04 09:43:00,79.0,72.0,29.40,North,-999,-999.0,-999.0,78,0.00,,,0.00,,2013-07-04 13:43:00,
2013-07-04 09:53:00,80.0,71.0,29.40,North,-999,-999.0,-999.0,75,0.00,,,0.00,,2013-07-04 13:53:00,
2013-07-04 10:02:00,82.0,73.0,29.40,North,-999,-999.0,-999.0,74,0.00,,,0.00,,2013-07-04 14:02:00,
2013-07-04 10:12:00,82.0,72.0,29.40,North,-999,-999.0,-999.0,73,0.00,,,0.00,,2013-07-04 14:12:00,
2013-07-04 10:22:00,83.0,72.0,29.39,North,-999,-999.0,-999.0,70,0.00,,,0.00,,2013-07-04 14:22:00,
2013-07-04 10:33:00,83.0,72.0,29.39,North,-999,-999.0,-999.0,70,0.00,,,0.00,,2013-07-04 14:33:00,
2013-07-04 10:43:00,84.0,73.0,29.39,North,-999,-999.0,-999.0,70,0.00,,,0.00,,2013-07-04 14:43:00,
2013-07-04 10:53:00,85.0,73.0,29.39,North,-999,-999.0,-999.0,68,0.00,,,0.00,,2013-07-04 14:53:00,
2013-07-04 11:02:00,85.0,73.0,29.39,North,-999,-999.0,-999.0,68,0.00,,,0.00,,2013-07-04 15:02:00,
2013-07-04 11:11:00,86.0,73.0,29.38,North,-999,-999.0,-999.0,66,0.00,,,0.00,,2013-07-04 15:11:00,
2013-07-04 11:23:00,87.0,75.0,29.39,North,-999,-999.0,-999.0,67,0.00,,,0.00,,2013-07-04 15:23:00,
2013-07-04 11:33:00,88.0,74.0,29.39,North,-999,-999.0,-999.0,63,0.00,,,0.00,,2013-07-04 15:33:00,
2013-07-04 11:43:00,88.0,74.0,29.38,North,-999,-999.0,-999.0,63,0.00,,,0.00,,2013-07-04 15:43:00,
2013-07-04 12:02:00,89.0,74.0,29.37,North,-999,-999.0,-999.0,62,0.00,,,0.00,,2013-07-04 16:02:00,
2013-07-04 12:11:00,90.0,74.0,29.37,North,-999,-999.0,-999.0,60,0.00,,,0.00,,2013-07-04 16:11:00,
2013-07-04 12:22:00,90.0,74.0,29.37,North,-999,-999.0,-999.0,60,0.00,,,0.00,,2013-07-04 16:22:00,
2013-07-04 12:33:00,90.0,75.0,29.37,North,-999,-999.0,-999.0,61,0.00,,,0.00,,2013-07-04 16:33:00,
2013-07-04 12:43:00,92.0,75.0,29.37,North,-999,-999.0,-999.0,58,0.00,,,0.00,,2013-07-04 16:43:00,
2013-07-04 12:52:00,92.0,75.0,29.37,North,-999,-999.0,-999.0,58,0.00,,,0.00,,2013-07-04 16:52:00,
2013-07-04 13:02:00,91.0,74.0,29.36,North,-999,-999.0,-999.0,58,0.00,,,0.00,,2013-07-04 17:02:00,
2013-07-04 13:12:00,91.0,74.0,29.37,North,-999,-999.0,-999.0,58,0.00,,,0.00,,2013-07-04 17:12:00,
2013-07-04 13:22:00,91.0,74.0,29.37,North,-999,-999.0,-999.0,58,0.00,,,0.00,,2013-07-04 17:22:00,
2013-07-04 14:01:00,94.0,75.0,29.35,North,-999,-999.0,-999.0,54,0.00,,,0.00,,2013-07-04 18:01:00,
2013-07-04 14:43:00,94.0,74.0,29.33,North,-999,-999.0,-999.0,52,0.00,,,0.00,,2013-07-04 18:43:00,
2013-07-04 14:52:00,94.0,74.0,29.33,North,-999,-999.0,-999.0,52,0.00,,,0.00,,2013-07-04 18:52:00,
2013-07-04 15:02:00,94.0,75.0,29.32,North,-999,-999.0,-999.0,54,0.00,,,0.00,,2013-07-04 19:02:00,
2013-07-04 15:12:00,94.0,74.0,29.32,North,-999,-999.0,-999.0,53,0.00,,,0.00,,2013-07-04 19:12:00,
2013-07-04 15:22:00,94.0,74.0,29.32,North,-999,-999.0,-999.0,53,0.00,,,0.00,,2013-07-04 19:22:00,
2013-07-04 15:34:00,94.0,74.0,29.32,North,-999,-999.0,-999.0,52,0.00,,,0.00,,2013-07-04 19:34:00,
2013-07-04 15:43:00,94.0,74.0,29.32,North,-999,-999.0,-999.0,52,0.00,,,0.00,,2013-07-04 19:43:00,
2013-07-04 15:53:00,95.0,74.0,29.32,North,-999,-999.0,-999.0,51,0.00,,,0.00,,2013-07-04 19:53:00,
2013-07-04 16:02:00,95.0,74.0,29.32,North,-999,-999.0,-999.0,51,0.00,,,0.00,,2013-07-04 20:02:00,
2013-07-04 16:22:00,95.0,74.0,29.31,North,-999,-999.0,-999.0,51,0.00,,,0.00,,2013-07-04 20:22:00,
2013-07-04 16:34:00,95.0,74.0,29.31,North,-999,-999.0,-999.0,51,0.00,,,0.00,,2013-07-04 20:34:00,
2013-07-04 16:42:00,95.0,74.0,29.31,North,-999,-999.0,-999.0,51,0.00,,,0.00,,2013-07-04 20:42:00,
2013-07-04 16:53:00,93.0,72.0,29.30,North,-999,-999.0,-999.0,51,0.00,,,0.00,,2013-07-04 20:53:00,
2013-07-04 17:01:00,92.0,72.0,29.30,North,-999,-999.0,-999.0,53,0.00,,,0.00,,2013-07-04 21:01:00,
2013-07-04 17:12:00,92.0,72.0,29.30,North,-999,-999.0,-999.0,53,0.00,,,0.00,,2013-07-04 21:12:00,
2013-07-04 17:22:00,90.0,72.0,29.30,North,-999,-999.0,-999.0,55,0.00,,,0.00,,2013-07-04 21:22:00,
2013-07-04 17:32:00,90.0,72.0,29.29,North,-999,-999.0,-999.0,55,0.00,,,0.00,,2013-07-04 21:32:00,
2013-07-04 17:43:00,89.0,71.0,29.29,North,-999,-999.0,-999.0,56,0.00,,,0.00,,2013-07-04 21:43:00,
2013-07-04 17:53:00,89.0,71.0,29.29,North,-999,-999.0,-999.0,56,0.00,,,0.00,,2013-07-04 21:53:00,
2013-07-04 18:02:00,89.0,72.0,29.29,North,-999,-999.0,-999.0,57,0.00,,,0.00,,2013-07-04 22:02:00,
2013-07-04 18:12:00,89.0,72.0,29.29,North,-999,-999.0,-999.0,57,0.00,,,0.00,,2013-07-04 22:12:00,
2013-07-04 18:22:00,89.0,72.0,29.29,North,-999,-999.0,-999.0,57,0.00,,,0.00,,2013-07-04 22:22:00,
2013-07-04 18:33:00,88.0,71.0,29.28,North,-999,-999.0,-999.0,57,0.00,,,0.00,,2013-07-04 22:33:00,
2013-07-04 18:43:00,87.0,71.0,29.29,North,-999,-999.0,-999.0,59,0.00,,,0.00,,2013-07-04 22:43:00,
2013-07-04 18:52:00,86.0,70.0,29.29,North,-999,-999.0,-999.0,59,0.00,,,0.00,,2013-07-04 22:52:00,
2013-07-04 19:02:00,86.0,70.0,29.29,North,-999,-999.0,-999.0,60,0.00,,,0.00,,2013-07-04 23:02:00,
2013-07-04 19:12:00,86.0,71.0,29.30,North,-999,-999.0,-999.0,61,0.00,,,0.00,,2013-07-04 23:12:00,
2013-07-04 19:23:00,86.0,71.0,29.30,North,-999,-999.0,-999.0,61,0.00,,,0.00,,2013-07-04 23:23:00,
2013-07-04 19:33:00,84.0,70.0,29.30,North,-999,-999.0,-999.0,63,0.00,,,0.00,,2013-07-04 23:33:00,
2013-07-04 19:43:00,84.0,70.0,29.30,North,-999,-999.0,-999.0,64,0.00,,,0.00,,2013-07-04 23:43:00,
2013-07-04 19:52:00,84.0,70.0,29.30,North,-999,-999.0,-999.0,64,0.00,,,0.00,,2013-07-04 23:52:00,
2013-07-04 20:01:00,82.0,70.0,29.29,North,-999,-999.0,-999.0,67,0.00,,,0.00,,2013-07-05 00:01:00,
2013-07-04 20:12:00,82.0,70.0,29.29,North,-999,-999.0,-999.0,67,0.00,,,0.00,,2013-07-05 00:12:00,
2013-07-04 20:22:00,82.0,70.0,29.29,North,-999,-999.0,-999.0,67,0.00,,,0.00,,2013-07-05 00:22:00,
2013-07-04 20:32:00,80.0,70.0,29.30,North,-999,-999.0,-999.0,71,0.00,,,0.00,,2013-07-05 00:32:00,
2013-07-04 20:43:00,79.0,69.0,29.30,North,-999,-999.0,-999.0,72,0.00,,,0.00,,2013-07-05 00:43:00,
2013-07-04 20:52:00,79.0,70.0,29.30,North,-999,-999.0,-999.0,73,0.00,,,0.00,,2013-07-05 00:52:00,
2013-07-04 21:01:00,78.0,69.0,29.30,North,-999,-999.0,-999.0,74,0.00,,,0.00,,2013-07-05 01:01:00,
2013-07-04 21:11:00,78.0,69.0,29.30,North,-999,-999.0,-999.0,74,0.00,,,0.00,,2013-07-05 01:11:00,
2013-07-04 21:22:00,78.0,69.0,29.30,North,-999,-999.0,-999.0,74,0.00,,,0.00,,2013-07-05 01:22:00,
2013-07-04 21:32:00,78.0,69.0,29.30,North,-999,-999.0,-999.0,74,0.00,,,0.00,,2013-07-05 01:32:00,
2013-07-04 21:42:00,78.0,69.0,29.30,North,-999,-999.0,-999.0,74,0.00,,,0.00,,2013-07-05 01:42:00,
2013-07-04 21:52:00,77.0,69.0,29.31,North,-999,-999.0,-999.0,76,0.00,,,0.00,,2013-07-05 01:52:00,
2013-07-04 22:02:00,76.0,68.0,29.31,North,-999,-999.0,-999.0,76,0.00,,,0.00,,2013-07-05 02:02:00,
2013-07-04 22:22:00,76.0,68.0,29.32,North,-999,-999.0,-999.0,76,0.00,,,0.00,,2013-07-05 02:22:00,
2013-07-04 22:32:00,76.0,68.0,29.32,North,-999,-999.0,-999.0,76,0.00,,,0.00,,2013-07-05 02:32:00,
2013-07-04 22:42:00,76.0,68.0,29.32,North,-999,-999.0,-999.0,76,0.00,,,0.00,,2013-07-05 02:42:00,
2013-07-04 22:52:00,76.0,68.0,29.32,North,-999,-999.0,-999.0,76,0.00,,,0.00,,2013-07-05 02:52:00,
2013-07-04 23:02:00,75.0,68.0,29.32,North,-999,-999.0,-999.0,78,0.00,,,0.00,,2013-07-05 03:02:00,
2013-07-04 23:11:00,75.0,68.0,29.32,North,-999,-999.0,-999.0,78,0.00,,,0.00,,2013-07-05 03:11:00,
2013-07-04 23:22:00,75.0,68.0,29.33,North,-999,-999.0,-999.0,78,0.00,,,0.00,,2013-07-05 03:22:00,
2013-07-04 23:33:00,75.0,68.0,29.33,North,-999,-999.0,-999.0,78,0.00,,,0.00,,2013-07-05 03:33:00,
2013-07-04 23:42:00,75.0,68.0,29.33,North,-999,-999.0,-999.0,78,0.00,,,0.00,,2013-07-05 03:42:00,
2013-07-04 23:52:00,74.0,67.0,29.32,North,-999,-999.0,-999.0,79,0.00,,,0.00,,2013-07-05 03:52:00,